www.pogodaiklimat.ru

Погода и климат >> Архив погоды >> Россия >> Хабаровский край >> Мариинское


ПОГОДА в Мариинском

  • Прогноз погоды в Мариинском
  • Монитор погоды в Мариинском

АРХИВ ПОГОДЫ в Мариинском

Время (UTC), дата Ветер
(напр.,м/с)
 
Видим.   Явления Облачность Т
(С)
Тd
(С)
f
(%)
Тe
(С)
Тes
(С)
Комфортность P
(гПа)
Po
(гПа)
Тmin
(С)
Tmax
(С)
R
(мм)
R24
(мм)
S
(см)
12 9.09 СВ 4 50 км 9/9 600 м
[Cb cap]
+14.2 +8.2 67 +13 +13 1004.3 1001.7
15 9.09 В 2 50 км 10/10 600 м
[Cb cap]
+12.8 +8.4 75 +12 +12 1004.6 1002.0
21 9.09 В 3 20 км слаб. ливневой дождь 10/10 300 м
[Cb cap]
+10.7 +8.3 85 +9 +9 1006.6 1004.0 +10.4 6
00 10.09 С 4 10 км ливневой дождь 10/10 300 м
[Cb cap]
+11.8 +8.5 80 +10 +10 1008.7 1006.1 +9.9
03 10.09 С 5 50 км {ливн. осадки} 9/6 600 м
[Cb cap Ci sp]
+13.7 +9.1 74 +12 +14 1010.3 1007.7
06 10.09 СЗ 4 50 км {ливн. осадки} 4/4 600 м
[Sc]
+14.7 +8.6 67 +14 +15 1011.7 1009.2
09 10.09 СВ 4 50 км 8/8 600 м
[Sc]
+14.6 +9.6 72 +13 +13 1013.3 1010.8 +14.9 9
12 10.09 З 2 50 км 1/1 600 м
[Sc]
+13.6 +9.9 78 +13 +13 1015.0 1012.3
15 10.09 З 2 50 км ясно +12.6 +9.5 81 +12 +12 1015.1 1012.4
18 10.09 З 2 50 км 4/4 600 м
[Sc]
+13.2 +10.2 82 +12 +12 1015.3 1012.6
21 10.09 ЮЗ 4 50 км 4/4 600 м
[Sc]
+13.2 +9.8 80 +12 +12 1015.9 1013.2 +12.5
00 11.09 З 3 50 км 3/3 600 м
[Sc]
+15.3 +10.0 71 +15 +18 1016.2 1013.6
03 11.09 З 3 50 км 1/1 600 м
[Sc]
+17.3 +9.1 59 +17 +24 1015.2 1012.6
06 11.09 З 1 50 км 1/1 600 м
[Sc]
+19.1 +5.7 41 +21 +25 комфорт 1013.8 1011.2
09 11.09 Ю 1 50 км ясно +16.0 +6.8 54 +17 +17 1014.0 1011.4 +19.1
12 11.09 Ю 2 50 км ясно +12.4 +9.9 85 +11 +11 1015.0 1012.3
15 11.09 Ю 2 50 км ясно +13.3 +9.4 77 +13 +13 1015.5 1012.8
21 11.09 З 2 50 км 5/5 600 м
[Sc]
+12.3 +9.7 84 +11 +11 1016.7 1014.0 +12.0
06 12.09 ЮЗ 2 50 км 3/3 600 м
[Cb cap]
+19.1 +9.5 54 +20 +23 1015.3 1012.7
09 12.09 штиль 0 50 км 3/3 600 м
[Sc]
+16.9 +11.6 71 +17 +17 1015.2 1012.6 +19.1
12 12.09 ЮЗ 2 50 км ясно +15.3 +10.4 73 +15 +15 1016.2 1013.6
15 12.09 Ю 2 50 км ясно +14.2 +10.2 77 +14 +14 1015.7 1013.0
18 12.09 Ю 2 50 км ясно +13.2 +9.0 76 +13 +13 1015.3 1012.6
21 12.09 Ю 3 50 км ясно +13.6 +8.0 69 +13 +13 1015.4 1012.7 +12.9
00 13.09 Ю 3 50 км 1/0
[Ci fib]
+17.0 +9.0 59 +17 +21 1014.8 1012.2
03 13.09 Ю 2 50 км 10/0
[Cs]
+20.5 +10.3 52 +23 +30 комфорт 1012.5 1009.9
06 13.09 ЮВ 4 50 км 3/0
[Ci sp]
+21.5 +10.0 48 +23 +25 комфорт 1009.8 1007.2
09 13.09 ЮВ 3 50 км 3/0
[Ci sp]
+17.7 +11.1 65 +18 +18 1008.4 1005.8 +22.2
12 13.09 Ю 1 50 км 6/0
[Ac trans Ci fib]
+15.7 +10.9 73 +16 +16 1007.4 1004.8
15 13.09 СЗ 2 50 км 3/0
[Ac trans]
+15.1 +11.5 79 +15 +15 1005.1 1002.5
18 13.09 ЮВ 2 50 км 10/10 600 м
[Sc]
+14.8 +11.7 82 +14 +14 1002.6 1000.0
21 13.09 ЮВ 3 50 км 10/8 600 м
[Cb cap Ac und]
+15.0 +11.7 81 +14 +14 1000.6 998.0 +14.2
00 14.09 Ю 3 10 км ливневой дождь 10/10 600 м
[Cb cap]
+15.4 +12.5 83 +15 +15 999.0 996.4
03 14.09 ЮЗ 5-11
{11}
50 км {ливн. осадки} 3/3 600 м
[Sc]
+18.3 +12.9 71 +18 +22 997.6 995.0
06 14.09 З 5
{13}
50 км {ливн. осадки} 3/3 600 м
[Sc]
+20.7 +6.7 40 +22 +23 комфорт 998.5 995.9
09 14.09 С 6 50 км 8/5 600 м
[Sc Ac trans]
+17.4 +9.2 59 +17 +17 1001.9 999.3 +20.7 3
12 14.09 С 4
{11}
50 км 6/1 600 м
[Sc Ac trans]
+14.9 +6.2 56 +14 +14 1005.9 1003.3
15 14.09 З 1 50 км ясно +13.1 +6.3 63 +13 +13 1007.7 1005.1
21 14.09 ЮЗ 4 50 км 1/1 600 м
[Sc]
+13.9 +4.0 51 +13 +13 1009.7 1007.0 +13.0
03 15.09 З 4 50 км ясно +18.1 +1.8 34 +18 +24 1009.8 1007.2
09 15.09 н/о +5.1 1008.7 1006.1 +20.0
21 15.09 Ю 2 50 км 6/3 600 м
[Sc Ci]
+13.3 +9.8 79 +13 +13 1006.1 1003.5 +12.6

 

Местоположение метеостанции Мариинское (Хабаровский край, Россия): широта 51.73 долгота 140.10 высота над уровнем моря 21 м.

В архиве по умолчанию представлена погода в Мариинском за последнюю неделю. Архивные данные за месяц целиком и за предыдущие месяцы, начиная с января 2011 года, Вы можете получить, выбрав интересующий диапазон дат из раскрывающегося списка и нажав кнопку "Ввод!".


*Определитесь, кто Вы:
робот инопланетянин человек

Внимание! Время в таблицах - всемирное. Для получения местного времени необходимо прибавить поправку, которая равна 10 ч.

Смотрите также архив погоды в соседних городах и на ближайших метеорологических станциях:

Погода в Богородском (Хабаровский край, Россия) (75 км)
Погода в Циммермановка (Хабаровский край, Россия) (77 км)
Погода в Погибях (Сахалинская область, Россия) (116 км)
Погода в Джаоре (Хабаровский край, Россия) (129 км)
Погода в Удинске (Хабаровский край, Россия) (159 км)
Погода в Николаевск-на-Амуре (Хабаровский край, Россия) (163 км)
Погода в Нижнетамбовском (Хабаровский край, Россия) (166 км)
Погода в Александровске-Сахалинском (Сахалинская область, Россия) (167 км)
Погода в Ныше (Сахалинская область, Россия) (181 км)
Погода в Сегжеме (Хабаровский край, Россия) (194 км)

Пояснения к столбцам:

Ветер - указаны скорость ветра в м/с - средняя за 10 мин, порывы в срок и между сроками (в фигурных скобках) и направление, откуда дует ветер: С - северный, СВ - северо-восточный, В - восточный, ЮВ - юго-восточный, Ю - южный, ЮЗ - юго-западный, З - западный, СЗ - северо-западный.
Видимость - горизонтальная дальность видимости в метрах или километрах. При видимости от 1 до 10 км при отсутствии осадков обычно наблюдается дымка, при ухудшении видимости до 1 км и менее - туман. В сухую погоду видимость может ухудшаться дымом, пылью или мглою.
Явления - указаны атмосферные явления, наблюдавшиеся в срок или в последний час перед сроком; фигурными скобками обозначены явления, наблюдавшиеся между сроками (за 1-3 часа до срока); квадратными скобками обозначены град или гололедные отложения с указанием их диаметра в мм.
Облачность - указаны через наклонную черту общая и нижняя облачность в баллах и высота нижней границы облаков в метрах; квадратными скобками обозначены формы облаков: Ci - перистые, Cs - перисто-слоистые, Cc - перисто-кучевые, Ac - высококучевые, As - высокослоистые, Sc - слоисто-кучевые, Ns - слоисто-дождевые, Cu - кучевые, Cb - кучево-дождевые. Подробнее классификацию облаков см. в Атласе облаков (PDF).
T - Температура воздуха - температура, измеренная на высоте 2 м над землей.
Td - Температура точки росы - температура, при понижении до которой содержащийся в воздухе водяной пар достигнет насыщения.
f - Относительная влажность воздуха - влажноcть воздуха, измеренная на высоте 2 м над землей.
Te - Эффективная температура - температура, которую ощущает одетый по сезону человек в тени. Характеристика душности погоды. При расчете учитывается влияние влажности воздуха и скорости ветра на теплоощущения человека.
Tes - Эффективная температура на солнце - температура, которую ощущает человек, с поправкой на солнечный нагрев. Характеристика знойности погоды. Зависит от высоты солнца над горизонтом, облачности и скорости ветра. Ночью, в пасмурную погоду, а также при ветре 12 м/с и более поправка равна нулю.
P - Атмосферное давление - приведенное к уровню моря атмосферное давление.
Po - Атмосферное давление - измеренное на уровне метеостанции атмосферное давление.
Tmin - Минимальная температура - минимум температуры воздуха на высоте 2 м над землей.
Tmax - Максимальная температура - максимум температуры воздуха на высоте 2 м над землей.
R - Количество осадков - Количество выпавших осадков за период времени, мм. При наведении курсора мыши на число - период времени, за который выпало указанное количество осадков.
R24 - Количество осадков - Количество выпавших осадков за 24 часа, мм.
S - Снежный покров - Высота снежного покрова, см. При наведении курсора мыши на число - состояние снежного покрова и степень покрытия местности в баллах.